Location: *
(38.9800°N, 16.0500°E)
Time: 07:55:18
(UTC+00:00)

ATLAS 5 CENTAUR R/B - Pass Details

Date: 07 April 2020
Orbit: 543 x 1116 km, 63.4° (Epoch: 01 May)

Event Time Altitude Azimuth Distance (km) Brightness Sun altitude
Rises 02:17:29 0° 336° (NNW) 3,294 5.4 -24.9°
Reaches altitude 10° 02:20:12 10° 349° (N) 2,460 4.8 -24.4°
Maximum altitude 02:25:00 26° 45° (NE) 1,719 4.5 -23.7°
Drops below altitude 10° 02:30:22 10° 101° (E) 2,773 5.5 -22.8°
Sets 02:33:36 0° 113° (ESE) 3,800 6.1 -22.2°
